ヴィルト第2彗星

81P/Wild 2 (2010)

English version
Home page
Total 6,336 html files since Dec. 4, 1995
Updated on October 26, 2008

---------------------------------------------------------------------

・ プロフィール

・ 軌道要素

The following orbital elements are taken from MPC 59598:

Epoch 2010 Feb. 13.0 TT = JDT 2455240.5
T 2010 Feb. 22.7209 TT                                  MPC
q   1.598059             (2000.0)            P               Q
n   0.1535098      Peri.   41.7939      -0.9985850      -0.0359776
a   3.454448       Node   136.0970      +0.0194975      -0.9328222
e   0.537391       Incl.    3.2375      +0.0494762      -0.3585363
P   6.42
From 1990 observations 1985-2005, mean residual 0".7.  Nongravitational
     parameters A1 = +0.10, A2 = +0.0092.

・ 星図

・ 光度変化

        m1 = 5.3 + 5 logΔ + 21.6 log r(t + 20)  [  ,95]  (              〜2010年 5月28日)
        m1 = 8.2 + 5 logΔ + 12.5 log r          [95,  ]  (2010年 5月28日〜              )

---------------------------------------------------------------------

軌道要素はMPCのEphemerides and Orbital Elementsに掲載されたものです。
星図は StellaNavigator Ver.2.0 for Windows (アストロアーツ 編著 / アスキー出版局刊) で作成したものです。
光度グラフはComet for Windowsで作成したものです。

---------------------------------------------------------------------

Copyright(C) 1995-2008 Seiichi Yoshida (comet@aerith.net). All rights reserved.